Regional Weather Roundup
Issued by NWS

Home | Current Version | Previous Version | Graphics & Text | Print | Product List | Glossary On
Versions: 1 2 3 4 5 6 7 8 9 10 11 12 13 14 15 16 17 18 19 20 21 22 23 24 25 26 27
000
ASUS45 KTFX 251210
RWRMT
MONTANA REGIONAL WEATHER ROUNDUP
NATIONAL WEATHER SERVICE GREAT FALLS MT
600 AM MDT SAT MAR 25 2017

NOTE: "FAIR" INDICATES FEW OR NO CLOUDS BELOW 12000 FEET WITH NO
SIGNIFICANT WEATHER AND/OR OBSTRUCTIONS TO VISIBILITY.

MTZ001>007-043-251300-
WEST OF THE DIVIDE

CITY           SKY/WX    TMP DP  RH WIND       PRES   REMARKS
KALISPELL      CLOUDY    37  31  78 S5        29.99R
MISSOULA       CLOUDY    40  32  73 N6        30.04S
BUTTE          PTCLDY    34  24  67 NW5       30.01R
MULLAN PASS    LGT SNOW  28  27  96 SW8       29.95S FOG     WCI  20
ANACONDA         N/A     36  23  60 W7        30.03R WCI  30
DEER LODGE       N/A     36  28  75 W5        30.05R
EUREKA           N/A     41  30  65 SE13      29.97R
HAMILTON         N/A     36  28  75 S6        30.04S WCI  31
RONAN            N/A     40  31  70 SE2       30.06S
$$

MTZ008-052>055-251300-
SOUTHWEST MONTANA

CITY           SKY/WX    TMP DP  RH WIND       PRES   REMARKS
BOZEMAN        CLOUDY    40  37  89 SE7       29.99R
DILLON         CLOUDY    37  31  78 CALM      29.99R
W YELLOWSTONE  CLOUDY    32  32 100 S6        30.01R FOG     WCI  26
ENNIS          CLOUDY    37  32  81 S6        30.03R
THREE FORKS      N/A     39  39 100 CALM      29.99R
$$

MTZ009-010-012-014-046-048-049-054-251300-
EAST SLOPES AND CENTRAL MONTANA

CITY           SKY/WX    TMP DP  RH WIND       PRES   REMARKS
CUT BANK       MOCLDY    36  24  62 W16       29.87R WCI  26
GREAT FALLS    CLOUDY    40  25  55 SW14      29.90S
MALMSTROM AFB  CLOUDY    43  27  52 SW14      29.91R
HELENA         CLOUDY    40  29  64 W14       29.99R
AUGUSTA          N/A     39  19  44 W29G35    29.86F WCI  27
BOWMANS CRNR   MOCLDY    35  24  64 SW16      29.89F WCI  25
CHOTEAU          N/A     39  21  48 NW5       29.89R
FAIRFIELD        N/A     38  20  49 S18       29.85F WCI  28
POWER            N/A     39  22  49 W12       29.90R WCI  32
RAYNESFORD     MOCLDY    43  24  46 W15       29.91R
$$

MTZ011-013-016-021-045-047-050-051-251300-
NORTH CENTRAL MONTANA

CITY           SKY/WX    TMP DP  RH WIND       PRES   REMARKS
HAVRE          CLOUDY    43  31  62 SW16      29.85R
LEWISTOWN      CLOUDY    42  31  64 SW12      29.90R
N BAR RANCH    CLOUDY    45  27  49 NW15G22   29.91S
CHINOOK          N/A     43  30  61 SW8       29.84R
DENTON           N/A     40  29  63 W15G23    29.86R
FORT BENTON      N/A     46  27  46 MISG      29.89R
GEYSER           N/A     39  26  58 W17       29.88S WCI  30
GRASS RANGE    CLOUDY    46  29  52 NW10      29.88R
STANFORD         N/A     35  25  65 W5        29.89S
WINIFRED       MOCLDY    43  30  60 W8        29.88R
$$

MTZ017>020-022>027-061-062-251300-
NORTHEAST MONTANA

CITY           SKY/WX    TMP DP  RH WIND       PRES   REMARKS
GLASGOW        PTCLDY    48  31  51 W10       29.82R
JORDAN           N/A     41  33  73 NW6       29.85R
SIDNEY         MOCLDY    44  34  67 S6        29.83R
WOLF POINT     MOCLDY    42  35  76 NW6       29.81R
MALTA          PTCLDY    46  34  61 W14       29.81R
PLENTYWOOD       N/A     43  34  70 SE7       29.80R
POPLAR           N/A     46  34  61 S3        29.81R
$$

MTZ028>42-056>058-251300-
SOUTHCENTRAL AND SOUTHEAST MONTANA

CITY           SKY/WX    TMP DP  RH WIND       PRES   REMARKS
BAKER          PTCLDY    40  31  70 SE9       29.87R
BILLINGS       MOCLDY    48  31  51 N12       29.91R
LIVINGSTON     LGT RAIN  40  35  83 NW8       29.98R
MILES CITY     CLOUDY    46  33  60 S5        29.85R
BIG TIMBER     CLOUDY    43  34  70 W23G30    29.96R
FORSYTH          N/A     48  36  61 CALM      29.86R
HARLOWTON      MOCLDY    40  33  74 W18       29.93R
LAUREL           N/A     47  30  51 W9        29.91R
$$

REGIONAL REPORTS...DAKOTAS

CITY           SKY/WX    TMP DP  RH WIND       PRES   REMARKS
WILLISTON      CLOUDY    43  33  68 S12       29.84S
MINOT          CLOUDY    32  30  92 SE12      29.96F WCI  23
DICKINSON      CLOUDY    33  29  85 S20       29.87S WCI  21
BEACH            N/A    N/A N/A N/A MISG        N/A
TIOGA            N/A     34  34 100 S14G20    29.88F WCI  24
WATFORD CITY     N/A     41  32  70 S12G17    29.86R
BISMARCK       CLOUDY    32  31  96 SE14      30.04S FOG     WCI  22
GRAND FORKS    CLOUDY    30  29  96 SE9       30.16S WCI  22
FARGO          CLEAR     30  27  88 SE5       30.18R
BUFFALO SD       N/A     36  30  79 S7        29.84R WCI  30
RAPID CITY     CLOUDY    35  27  72 S15       29.93F WCI  25
$$

REGIONAL REPORTS...WYOMING/IDAHO/WASHINGTON

CITY           SKY/WX    TMP DP  RH WIND       PRES   REMARKS
GILLETTE       CLOUDY    47  32  56 SW12      29.89R
SHERIDAN       CLOUDY    41  35  79 N3        29.88R
BUFFALO WY     CLOUDY    49  23  36 NW9       29.90R
CODY           CLOUDY    46  28  49 W8        29.93S
YELLOWSTONE LA   N/A     30  30 100 CALM      30.03S
IDAHO FALLS    CLOUDY    41  38  89 S16       30.02S
SALMON         CLOUDY    37  30  75 CALM      30.05R
BOISE          MOCLDY    38  36  92 S3        30.08S
SPOKANE        PTCLDY    39  36  89 S14       29.99S WCI  31
$$

REGIONAL REPORTS...ALBERTA

CITY           SKY/WX    TMP DP  RH WIND       PRES   REMARKS
EDMONTON       CLOUDY    30  27  86 W2        29.71R
CALGARY        PTCLDY    41  16  36 W14G21    29.74R
LETHBRIDGE     CLEAR     41  25  52 W22G31    29.80R
MEDICINE HAT   CLEAR     39  28  65 W21G26    29.74R WCI  29
WATERTON GATE    N/A     37  23  56 SW14G24     N/A  WCI  29
MILK RIVER       N/A     32  25  74 N8          N/A  WCI  25
ONEFOUR          N/A     41  25  52 W20G28      N/A
$$

REGIONAL REPORTS...SASKATCHEWAN

CITY           SKY/WX    TMP DP  RH WIND       PRES   REMARKS
SWIFT CURRENT  CLEAR     41  30  65 SW17G23   29.69R
REGINA         MOCLDY    36  32  87 SE21G26   29.72F WCI  24
SASKATOON      MOCLDY    36  32  87 SE10      29.61F WCI  28
CYPRESS HILLS    N/A     36  23  60 W16G26      N/A  WCI  26
VAL MARIE        N/A     43  30  61 W22G31      N/A
ROCKGLEN         N/A     39  30  70 W13         N/A  WCI  32
ASSINIBOIA       N/A     30  28  93 NW5         N/A
$$




USA.gov is the U.S. government's official web portal to all federal, state and local government web resources and services.